Location: Ammerl�gen
(47.2167°N, 9.6000°E)
Time: 10:27:03
(UTC+00:00)

ERS-1 Rocket - Pass Details

Date: 21 April 2021
Orbit: 753 x 758 km, 98.4° (Epoch: 06 May)

Event Time Altitude Azimuth Distance (km) Brightness Sun altitude
Exits shadow 20:34:05 42° 126° (SE) 1,076 3.3 -20.0°
Maximum altitude 20:35:32 58° 71° (ENE) 878 3.1 -20.2°
Drops below altitude 10° 20:40:28 10° 353° (N) 2,288 6.2 -20.8°
Sets 20:42:48 0° 350° (N) 3,217 7.2 -21.0°
